Roanoke, VA

6:15 AM EDT on August 19, 2017 (GMT -0400)
Roanoke Regional-Woodrum

Weather History for KROA - January, 2014

Change the Weather History Date:

Wednesday, January 22, 2014

  Actual Average Record
Temperature  
Mean Temperature 18 °F 37 °F  
Max Temperature 23 °F 46 °F 74 °F (1932)
Min Temperature 12 °F 27 °F 2 °F (1984)
Degree Days  
Heating Degree Days 47 28  
Month to date heating degree days 705 633  
Since 1 July heating degree days 2272 2243  
Cooling Degree Days 0 0  
Month to date cooling degree days 0 0  
Year to date cooling degree days 0 0  
Moisture  
Dew Point 0 °F    
Average Humidity 47    
Maximum Humidity 61    
Minimum Humidity 33    
Precipitation  
Precipitation 0.00 in 0.10 in 2.01 in (1954)
Month to date precipitation 1.76 2.07  
Year to date precipitation 1.76 2.07  
Snow  
Snow 0.00 in - - ()
Month to date snowfall 1.4  
Since 1 July snowfall 1.4  
Snow Depth 1.00 in    
Sea Level Pressure  
Sea Level Pressure 30.02 in    
Wind  
Wind Speed 9 mph (NW)    
Max Wind Speed 18 mph    
Max Gust Speed 24 mph    
Visibility 10 miles    
Events      
T = Trace of Precipitation, MM = Missing Value Source: NWS Daily Summary

Daily Weather History Graph

Daily Weather History Graph

Search for Another Location

Airport or City:

Trip Planner

Search our weather history database for the weather conditions in past years. The results will help you decide how hot, cold, wet, or windy it might be!

Date:

Astronomy

Jan. 22, 2014 Rise Set
Actual Time 7:29 AM EST 5:33 PM EST
Civil Twilight 7:01 AM EST 6:01 PM EST
Nautical Twilight 6:30 AM EST 6:33 PM EST
Astronomical Twilight 5:59 AM EST 7:04 PM EST
Moon 11:54 PM EST (1/22) 10:38 AM EST (1/22)
Length of Visible Light 10h 59m
Length of Day
10h 03m
Waning Gibbous, 65% of the Moon is Illuminated
Jan 22
Waning Gibbous
Jan 24
Last Quarter
Jan 30
New
Feb 6
First Quarter
Feb 14
Full

Hourly Weather History & Observations

Time (EST) Temp. Windchill Dew Point Humidity Pressure Visibility Wind Dir Wind Speed Gust Speed Precip Events Conditions
12:54 AM 18.0 °F 9.8 °F 7.0 °F 62% 29.91 in 10.0 mi Variable 5.8 mph - N/A   Clear
1:54 AM 18.0 °F 3.6 °F 7.0 °F 62% 29.92 in 10.0 mi NNW 15.0 mph 20.7 mph N/A   Mostly Cloudy
2:54 AM 18.0 °F 6.9 °F 5.0 °F 57% 29.94 in 10.0 mi WNW 9.2 mph - N/A   Mostly Cloudy
3:54 AM 16.0 °F 2.9 °F 3.9 °F 59% 29.96 in 10.0 mi WNW 11.5 mph - N/A   Mostly Cloudy
4:54 AM 15.1 °F 3.3 °F 3.9 °F 61% 29.96 in 10.0 mi NNW 9.2 mph - N/A   Mostly Cloudy
5:54 AM 14.0 °F -1.4 °F -0.0 °F 54% 29.98 in 10.0 mi NNW 15.0 mph 20.7 mph N/A   Partly Cloudy
6:54 AM 12.9 °F 2.6 °F -0.9 °F 54% 29.99 in 10.0 mi West 6.9 mph - N/A   Mostly Cloudy
7:54 AM 12.9 °F 1.6 °F -2.0 °F 51% 30.02 in 10.0 mi NW 8.1 mph - N/A   Mostly Cloudy
8:54 AM 12.0 °F -2.0 °F -5.1 °F 46% 30.06 in 10.0 mi West 11.5 mph - N/A   Mostly Cloudy
9:54 AM 12.9 °F -3.4 °F -4.0 °F 47% 30.09 in 10.0 mi WNW 16.1 mph - N/A   Scattered Clouds
10:54 AM 15.1 °F 1.8 °F -5.1 °F 41% 30.09 in 10.0 mi West 11.5 mph 20.7 mph N/A   Clear
11:54 AM 17.1 °F 2.5 °F -4.0 °F 39% 30.07 in 10.0 mi WNW 15.0 mph 21.9 mph N/A   Clear
12:54 PM 18.0 °F 7.7 °F -4.0 °F 38% 30.04 in 10.0 mi WNW 8.1 mph 17.3 mph N/A   Clear
1:54 PM 19.0 °F 8.2 °F -4.0 °F 36% 30.03 in 10.0 mi NW 9.2 mph - N/A   Clear
2:54 PM 21.9 °F 11.7 °F -0.9 °F 37% 30.02 in 10.0 mi NW 9.2 mph - N/A   Clear
3:54 PM 21.9 °F 10.4 °F -2.9 °F 34% 30.02 in 10.0 mi NW 11.5 mph - N/A   Clear
4:54 PM 21.9 °F 12.5 °F -4.0 °F 32% 30.03 in 10.0 mi NNW 8.1 mph - N/A   Clear
5:54 PM 17.1 °F 7.6 °F -2.9 °F 41% 30.05 in 10.0 mi NW 6.9 mph - N/A   Clear
6:54 PM 19.0 °F 10.0 °F -0.9 °F 42% 30.07 in 10.0 mi NNW 6.9 mph - N/A   Mostly Cloudy
7:54 PM 19.0 °F 12.3 °F 1.0 °F 46% 30.07 in 10.0 mi NNW 4.6 mph - N/A   Overcast
8:54 PM 19.9 °F - -0.9 °F 40% 30.08 in 10.0 mi Calm Calm - N/A   Overcast
9:54 PM 19.9 °F - 3.0 °F 48% 30.08 in 10.0 mi Calm Calm - N/A   Overcast
10:54 PM 19.9 °F 13.4 °F 3.0 °F 48% 30.10 in 10.0 mi West 4.6 mph - N/A   Mostly Cloudy
11:54 PM 19.9 °F 14.9 °F 3.0 °F 48% 30.10 in 10.0 mi WNW 3.5 mph - N/A   Mostly Cloudy